This is the latest recevied weather packets stored in our database for station/object KB9GXK. If no packets are shown the sender has not sent any weather packets the latest 10 day(s).
| Time | Temp. | Humidity | Pressure | Rain* | Wind** | Luminosity | Snow |
|---|---|---|---|---|---|---|---|
| 1777987358 | 9.44° C | 44% | 1009.5 hPa | 0 mm | - | 119 W/m² | - |
| 1777987055 | 10° C | 44% | 1009.5 hPa | 0 mm | - | 108 W/m² | - |
| 1777986752 | 10° C | 45% | 1009.2 hPa | 0 mm | - | 104 W/m² | - |
| 1777986450 | 9.44° C | 44% | 1009.3 hPa | 0 mm | - | 123 W/m² | - |
| 1777986149 | 9.44° C | 45% | 1009 hPa | 0 mm | - | 125 W/m² | - |
| 1777985845 | 9.44° C | 45% | 1009.2 hPa | 0 mm | - | 130 W/m² | - |
| 1777985542 | 9.44° C | 45% | 1008.9 hPa | 0 mm | - | 119 W/m² | - |
| 1777985239 | 9.44° C | 46% | 1009 hPa | 0 mm | - | 107 W/m² | - |
| 1777984936 | 9.44° C | 47% | 1009 hPa | 0 mm | - | 115 W/m² | - |
| 1777984631 | 8.89° C | 47% | 1008.9 hPa | 0 mm | - | 119 W/m² | - |
| 1777984329 | 8.89° C | 47% | 1009.1 hPa | 0 mm | - | 92 W/m² | - |
| 1777984025 | 8.89° C | 47% | 1009.2 hPa | 0 mm | - | 75 W/m² | - |
| 1777983722 | 8.89° C | 47% | 1009.5 hPa | 0 mm | - | 69 W/m² | - |
| 1777983419 | 8.89° C | 50% | 1009.2 hPa | 0 mm | - | 63 W/m² | - |
| 1777983115 | 8.89° C | 50% | 1009.3 hPa | 0 mm | - | 52 W/m² | - |
| 1777982812 | 8.89° C | 50% | 1009.5 hPa | 0 mm | - | 48 W/m² | - |
| 1777982508 | 8.89° C | 50% | 1009.2 hPa | 0 mm | - | 35 W/m² | - |
| 1777982201 | 8.89° C | 48% | 1008.8 hPa | 0 mm | - | 40 W/m² | - |
| 1777981899 | 8.89° C | 48% | 1008.7 hPa | 0 mm | - | 34 W/m² | - |
| 1777981596 | 8.89° C | 48% | 1008 hPa | 0 mm | - | 28 W/m² | - |
| 1777981293 | 8.89° C | 47% | 1008.6 hPa | 0 mm | - | 18 W/m² | - |
| 1777980989 | 8.89° C | 47% | 1008.5 hPa | 0 mm | - | 10 W/m² | - |
| 1777980686 | 8.89° C | 48% | 1008 hPa | 0 mm | - | 9 W/m² | - |
| 1777980382 | 8.89° C | 50% | 1007.3 hPa | 0 mm | - | 18 W/m² | - |
| 1777980080 | 8.89° C | 48% | 1007.1 hPa | 0 mm | - | 14 W/m² | - |
* Rain latest hour (hover to see other rain measurements)
** Current wind speed in m/s (hover to see current wind gust speed)